H1 CPF 2 NER 2021 7 27 9 208 01 glonass138 H2 1805301 9138 43508 2021 7 27 0 0 0 2021 7 30 23 45 0 900 1 1 0 0 0 1 H9 10 0 59422 0.00000 0 -13053791.338 7681320.451 -20520192.651 10 0 59422 900.00000 0 -15477861.100 7471575.842 -18846874.366 10 0 59422 1800.00000 0 -17682484.449 7452861.374 -16807446.804 10 0 59422 2700.00000 0 -19611343.030 7592942.755 -14441591.974 10 0 59422 3600.00000 0 -21217152.544 7850371.768 -11795313.534 10 0 59422 4500.00000 0 -22463458.370 8176420.891 -8920040.090 10 0 59422 5400.00000 0 -23325991.621 8517334.429 -5871624.263 10 0 59422 6300.00000 0 -23793529.844 8816800.571 -2709256.942 10 0 59422 7200.00000 0 -23868227.437 9018539.531 505681.971 10 0 59422 8100.00000 0 -23565403.056 9068898.064 3710813.945 10 0 59422 9000.00000 0 -22912793.959 8919340.530 6843970.159 10 0 59422 9900.00000 0 -21949309.428 8528731.129 9844394.226 10 0 59422 10800.00000 0 -20723336.353 7865310.795 12653916.103 10 0 59422 11700.00000 0 -19290668.491 6908285.109 15218074.667 10 0 59422 12600.00000 0 -17712146.501 5648956.020 17487167.515 10 0 59422 13500.00000 0 -16051107.600 4091349.168 19417208.229 10 0 59422 14400.00000 0 -14370751.297 2252309.620 20970773.250 10 0 59422 15300.00000 0 -12731530.942 161060.976 22117722.578 10 0 59422 16200.00000 0 -11188679.434 -2141755.130 22835781.103 10 0 59422 17100.00000 0 -9789971.666 -4605520.633 23110969.800 10 0 59422 18000.00000 0 -8573816.444 -7171505.331 22937878.764 10 0 59422 18900.00000 0 -7567756.861 -9775078.055 22319776.853 10 0 59422 19800.00000 0 -6787441.186 -12348174.495 21268555.528 10 0 59422 20700.00000 0 -6236106.998 -14821920.549 19804507.385 10 0 59422 21600.00000 0 -5904599.917 -17129303.387 17955942.845 10 0 59422 22500.00000 0 -5771926.171 -19207780.084 15758651.358 10 0 59422 23400.00000 0 -5806315.889 -21001715.651 13255216.538 10 0 59422 24300.00000 0 -5966752.577 -22464549.016 10494197.438 10 0 59422 25200.00000 0 -6204904.380 -23560596.397 7529191.007 10 0 59422 26100.00000 0 -6467375.632 -24266416.176 4417793.387 10 0 59422 27000.00000 0 -6698183.217 -24571677.600 1220480.022 10 0 59422 27900.00000 0 -6841352.408 -24479496.366 -2000573.572 10 0 59422 28800.00000 0 -6843521.439 -24006222.509 -5182706.842 10 0 59422 29700.00000 0 -6656443.341 -23180689.283 -8264000.652 10 0 59422 30600.00000 0 -6239277.747 -22042954.717 -11184490.413 10 0 59422 31500.00000 0 -5560574.198 -20642589.001 -13887341.102 10 0 59422 32400.00000 0 -4599861.515 -19036580.303 -16319960.467 10 0 59422 33300.00000 0 -3348774.671 -17286947.796 -18435027.964 10 0 59422 34200.00000 0 -1811670.340 -15458162.999 -20191418.862 10 0 59422 35100.00000 0 -5704.052 -13614488.376 -21555005.327 10 0 59422 36000.00000 0 2039635.310 -11817345.303 -22499318.959 10 0 59422 36900.00000 0 4283514.882 -10122822.047 -23006062.193 10 0 59422 37800.00000 0 6675230.246 -8579426.008 -23065459.113 10 0 59422 38700.00000 0 9156099.922 -7226173.823 -22676439.449 10 0 59422 39600.00000 0 11661703.164 -6091098.491 -21846652.743 10 0 59422 40500.00000 0 14124368.151 -5190234.858 -20592312.993 10 0 59422 41400.00000 0 16475807.240 -4527124.513 -18937877.184 10 0 59422 42300.00000 0 18649789.810 -4092859.395 -16915564.303 10 0 59422 43200.00000 0 20584741.765 -3866660.662 -14564724.407 10 0 59422 44100.00000 0 22226163.860 -3816966.955 -11931070.086 10 0 59422 45000.00000 0 23528768.461 -3902984.921 -9065785.398 10 0 59422 45900.00000 0 24458246.260 -4076635.418 -6024529.633 10 0 59422 46800.00000 0 24992589.809 -4284812.345 -2866355.299 10 0 59422 47700.00000 0 25122919.318 -4471857.966 347438.462 10 0 59422 48600.00000 0 24853776.984 -4582149.616 3554494.709 10 0 59422 49500.00000 0 24202878.317 -4562688.069 6692606.645 10 0 59422 50400.00000 0 23200331.633 -4365578.007 9700921.117 10 0 59422 51300.00000 0 21887359.036 -3950295.578 12521114.438 10 0 59422 52200.00000 0 20314572.867 -3285647.192 15098518.019 10 0 59422 53100.00000 0 18539880.069 -2351336.687 17383172.233 10 0 59422 54000.00000 0 16626102.065 -1139074.480 19330788.730 10 0 59422 54900.00000 0 14638409.353 346818.611 20903603.176 10 0 59422 55800.00000 0 12641677.502 2089339.084 22071102.567 10 0 59422 56700.00000 0 10697874.150 4059264.232 22810613.740 10 0 59422 57600.00000 0 8863585.107 6216133.505 23107742.217 10 0 59422 58500.00000 0 7187781.864 8509708.366 22956653.189 10 0 59422 59400.00000 0 5709922.666 10881851.558 22360189.295 10 0 59422 60300.00000 0 4458465.513 13268749.272 21329822.616 10 0 59422 61200.00000 0 3449854.568 15603385.264 19885441.268 10 0 59422 62100.00000 0 2688021.804 17818165.297 18054973.881 10 0 59422 63000.00000 0 2164424.423 19847583.714 15873858.210 10 0 59422 63900.00000 0 1858616.348 21630821.524 13384363.113 10 0 59422 64800.00000 0 1739329.684 23114167.892 10634776.016 10 0 59422 65700.00000 0 1766020.530 24253163.699 7678470.724 10 0 59422 66600.00000 0 1890813.850 25014376.968 4572873.180 10 0 59422 67500.00000 0 2060764.907 25376735.087 1378344.991 10 0 59422 68400.00000 0 2220341.109 25332357.174 -1842993.454 10 0 59422 69300.00000 0 2314018.370 24886850.833 -5028476.821 10 0 59422 70200.00000 0 2288881.046 24059060.343 -8116121.314 10 0 59422 71100.00000 0 2097113.999 22880276.431 -11045838.988 10 0 59422 72000.00000 0 1698279.865 21392940.713 -13760615.168 10 0 59422 72900.00000 0 1061283.743 19648899.603 -16207625.173 10 0 59422 73800.00000 0 165940.772 17707281.364 -18339267.871 10 0 59422 74700.00000 0 -995920.836 15632086.063 -20114095.336 10 0 59422 75600.00000 0 -2419869.028 13489590.024 -21497620.341 10 0 59422 76500.00000 0 -4088815.230 11345674.008 -22462985.996 10 0 59422 77400.00000 0 -5973502.785 9263187.261 -22991484.795 10 0 59422 78300.00000 0 -8033516.634 7299457.628 -23072917.457 10 0 59422 79200.00000 0 -10218772.520 5504051.398 -22705785.181 10 0 59422 80100.00000 0 -12471423.778 3916875.766 -21897312.142 10 0 59422 81000.00000 0 -14728106.385 2566702.106 -20663298.372 10 0 59422 81900.00000 0 -16922428.908 1470170.328 -19027806.310 10 0 59422 82800.00000 0 -18987603.616 631314.440 -17022687.450 10 0 59422 83700.00000 0 -20859109.319 41627.390 -14686958.522 10 0 59422 84600.00000 0 -22477275.092 -319339.268 -12066039.406 10 0 59422 85500.00000 0 -23789677.315 -482867.758 -9210867.735 10 0 59423 0.00000 0 -24753250.311 -489506.626 -6176907.479 10 0 59423 900.00000 0 -25336022.543 -387110.901 -3023070.423 10 0 59423 1800.00000 0 -25518407.038 -228573.313 189427.348 10 0 59423 2700.00000 0 -25293991.015 -69343.679 3398252.982 10 0 59423 3600.00000 0 -24669793.969 35158.712 6541164.350 10 0 59423 4500.00000 0 -23665982.599 32129.640 9557214.294 10 0 59423 5400.00000 0 -22315055.588 -126147.844 12387928.346 10 0 59423 6300.00000 0 -20660532.418 -480048.130 14978433.323 10 0 59423 7200.00000 0 -18755201.304 -1060659.966 17278515.203 10 0 59423 8100.00000 0 -16658999.322 -1888237.680 19243586.367 10 0 59423 9000.00000 0 -14436612.916 -2971112.336 20835544.136 10 0 59423 9900.00000 0 -12154898.367 -4305109.167 22023504.599 10 0 59423 10800.00000 0 -9880228.919 -5873496.675 22784398.254 10 0 59423 11700.00000 0 -7675878.119 -7647470.757 23103416.459 10 0 59423 12600.00000 0 -5599547.342 -9587155.032 22974300.362 10 0 59423 13500.00000 0 -3701139.327 -11643077.242 22399466.817 10 0 59423 14400.00000 0 -2020869.472 -13758061.818 21389968.560 10 0 59423 15300.00000 0 -587792.771 -15869461.305 19965288.856 10 0 59423 16200.00000 0 581192.907 -17911635.026 18152973.806 10 0 59423 17100.00000 0 1481826.072 -19818572.810 15988108.356 10 0 59423 18000.00000 0 2122423.690 -21526554.968 13512645.147 10 0 59423 18900.00000 0 2523288.802 -22976737.742 10774598.182 10 0 59423 19800.00000 0 2715608.820 -24117556.048 7827116.035 10 0 59423 20700.00000 0 2739891.093 -24906842.322 4727452.103 10 0 59423 21600.00000 0 2644002.144 -25313571.917 1535851.619 10 0 59423 22500.00000 0 2480893.969 -25319160.798 -1685622.851 10 0 59423 23400.00000 0 2306114.280 -24918260.017 -4874304.033 10 0 59423 24300.00000 0 2175207.120 -24119012.656 -7968146.392 10 0 59423 25200.00000 0 2141115.088 -22942761.660 -10906941.608 10 0 59423 26100.00000 0 2251694.465 -21423220.411 -13633498.359 10 0 59423 27000.00000 0 2547449.837 -19605140.653 -16094762.515 10 0 59423 27900.00000 0 3059585.376 -17542533.772 -18242855.202 10 0 59423 28800.00000 0 3808456.328 -15296520.488 -20036007.945 10 0 59423 29700.00000 0 4802487.175 -12932899.303 -21439376.468 10 0 59423 30600.00000 0 6037603.003 -10519535.896 -22425717.370 10 0 59423 31500.00000 0 7497198.678 -8123682.905 -22975914.759 10 0 59423 32400.00000 0 9152647.778 -5809342.035 -23079347.103 10 0 59423 33300.00000 0 10964330.309 -3634778.288 -22734087.749 10 0 59423 34200.00000 0 12883136.501 -1650289.450 -21946935.762 10 0 59423 35100.00000 0 14852383.962 103677.119 -20733277.074 10 0 59423 36000.00000 0 16810068.247 1597983.136 -19116779.052 10 0 59423 36900.00000 0 18691352.851 2815774.081 -17128924.788 10 0 59423 37800.00000 0 20431194.741 3752930.944 -14808396.372 10 0 59423 38700.00000 0 21966995.805 4417982.010 -12200319.242 10 0 59423 39600.00000 0 23241169.489 4831480.173 -9355382.439 10 0 59423 40500.00000 0 24203515.432 5024873.708 -6328851.904 10 0 59423 41400.00000 0 24813302.963 5038919.616 -3179496.025 10 0 59423 42300.00000 0 25040976.403 4921707.683 31555.507 10 0 59423 43200.00000 0 24869411.072 4726379.702 3241997.326 10 0 59423 44100.00000 0 24294667.642 4508640.941 6389555.414 10 0 59423 45000.00000 0 23326213.503 4324169.476 9413192.007 10 0 59423 45900.00000 0 21986602.080 4226033.131 12254285.096 10 0 59423 46800.00000 0 20310623.620 4262223.248 14857759.930 10 0 59423 47700.00000 0 18343962.927 4473409.423 17173150.826 10 0 59423 48600.00000 0 16141419.896 4891009.909 19155573.336 10 0 59423 49500.00000 0 13764766.641 5535659.145 20766588.533 10 0 59423 50400.00000 0 11280329.920 6416137.156 21974943.348 10 0 59423 51300.00000 0 8756398.672 7528806.386 22757173.308 10 0 59423 52200.00000 0 6260563.474 8857580.478 23098056.572 10 0 59423 53100.00000 0 3857097.517 10374427.389 22990910.770 10 0 59423 54000.00000 0 1604486.772 12040387.224 22437727.017 10 0 59423 54900.00000 0 -446789.055 13807063.755 21449138.258 10 0 59423 55800.00000 0 -2256133.413 15618528.824 20044221.987 10 0 59423 56700.00000 0 -3794290.345 17413561.566 18250140.379 10 0 59423 57600.00000 0 -5044322.381 19128130.104 16101623.779 10 0 59423 58500.00000 0 -6002068.490 20698012.834 13640306.474 10 0 59423 59400.00000 0 -6676063.313 22061450.090 10913926.635 10 0 59423 60300.00000 0 -7086921.410 23161715.184 7975404.998 10 0 59423 61200.00000 0 -7266212.628 23949496.549 4881819.665 10 0 59423 62100.00000 0 -7254876.423 24384990.264 1693296.646 10 0 59423 63000.00000 0 -7101242.509 24439613.927 -1528162.207 10 0 59423 63900.00000 0 -6858742.210 24097268.707 -4719890.540 10 0 59423 64800.00000 0 -6583408.233 23355095.298 -7819783.873 10 0 59423 65700.00000 0 -6331269.731 22223690.878 -10767516.194 10 0 59423 66600.00000 0 -6155754.162 20726777.028 -13505722.024 10 0 59423 67500.00000 0 -6105207.204 18900332.005 -15981120.040 10 0 59423 68400.00000 0 -6220636.894 16791223.600 -18145555.643 10 0 59423 69300.00000 0 -6533778.468 14455399.783 -19956941.574 10 0 59423 70200.00000 0 -7065562.636 11955713.064 -21380078.036 10 0 59423 71100.00000 0 -7825052.690 9359469.787 -22387336.399 10 0 59423 72000.00000 0 -8808895.817 6735806.900 -22959193.426 10 0 59423 72900.00000 0 -10001312.147 4153005.728 -23084606.108 10 0 59423 73800.00000 0 -11374622.279 1675854.493 -22761220.407 10 0 59423 74700.00000 0 -12890291.270 -636830.924 -21995410.398 10 0 59423 75600.00000 0 -14500445.439 -2734425.556 -20802147.657 10 0 59423 76500.00000 0 -16149798.467 -4576361.966 -19204703.837 10 0 59423 77400.00000 0 -17777906.088 -6133568.426 -17234192.595 10 0 59423 78300.00000 0 -19321654.985 -7389420.350 -14928959.997 10 0 59423 79200.00000 0 -20717881.670 -8340167.013 -12333835.357 10 0 59423 80100.00000 0 -21906011.616 -8994817.552 -9499257.196 10 0 59423 81000.00000 0 -22830608.093 -9374492.888 -6480291.365 10 0 59423 81900.00000 0 -23443723.929 -9511272.548 -3335560.436 10 0 59423 82800.00000 0 -23706957.599 -9446586.401 -126105.325 10 0 59423 83700.00000 0 -23593127.525 -9229220.384 3085798.662 10 0 59423 84600.00000 0 -23087494.400 -8913021.325 6237848.339 10 0 59423 85500.00000 0 -22188480.382 -8554398.402 9268918.148 10 0 59424 0.00000 0 -20907855.053 -8209727.136 12120241.371 10 0 59424 900.00000 0 -19270379.885 -7932765.965 14736544.676 10 0 59424 1800.00000 0 -17312926.899 -7772193.497 17067113.481 10 0 59424 2700.00000 0 -15083106.409 -7769371.835 19066769.120 10 0 59424 3600.00000 0 -12637461.936 -7956428.323 20696738.777 10 0 59424 4500.00000 0 -10039305.930 -8354737.710 21925402.239 10 0 59424 5400.00000 0 -7356285.732 -8973868.151 22728901.682 10 0 59424 6300.00000 0 -4657779.734 -9811035.946 23091603.262 10 0 59424 7200.00000 0 -2012230.787 -10851092.559 23006401.860 10 0 59424 8100.00000 0 515473.656 -12067045.476 22474863.221 10 0 59424 9000.00000 0 2866467.115 -13421092.353 21507200.474 10 0 59424 9900.00000 0 4990113.914 -14866126.477 20122084.947 10 0 59424 10800.00000 0 6845872.371 -16347651.899 18346294.160 10 0 59424 11700.00000 0 8404734.495 -17806029.313 16214202.761 10 0 59424 12600.00000 0 9650182.638 -19178959.522 13767125.248 10 0 59424 13500.00000 0 10578623.591 -20404101.018 11052522.170 10 0 59424 14400.00000 0 11199282.228 -21421712.042 8123084.301 10 0 59424 15300.00000 0 11533559.446 -22177205.866 5035712.021 10 0 59424 16200.00000 0 11613881.724 -22623511.187 1850409.453 10 0 59424 17100.00000 0 11482091.290 -22723137.337 -1370885.111 10 0 59424 18000.00000 0 11187445.390 -22449856.110 -4565509.223 10 0 59424 18900.00000 0 10784310.020 -21789927.991 -7671302.472 10 0 59424 19800.00000 0 10329646.666 -20742819.922 -10627824.156 10 0 59424 20700.00000 0 9880399.411 -19321383.100 -13377537.592 10 0 59424 21600.00000 0 9490894.181 -17551482.357 -15866937.111 10 0 59424 22500.00000 0 9210361.281 -15471092.060 -18047595.082 10 0 59424 23400.00000 0 9080686.995 -13128896.063 -19877107.912 10 0 59424 24300.00000 0 9134490.069 -10582450.188 -21319922.438 10 0 59424 25200.00000 0 9393604.921 -7895983.935 -22348026.591 10 0 59424 26100.00000 0 9868035.961 -5137933.361 -22941491.169 10 0 59424 27000.00000 0 10555427.274 -2378307.992 -23088852.631 10 0 59424 27900.00000 0 11441070.065 313998.760 -22787330.068 10 0 59424 28800.00000 0 12498447.462 2873843.952 -22042872.671 10 0 59424 29700.00000 0 13690293.645 5242305.310 -20870037.364 10 0 59424 30600.00000 0 14970122.700 7368885.408 -19291699.427 10 0 59424 31500.00000 0 16284162.778 9213359.147 -17338602.061 10 0 59424 32400.00000 0 17573614.279 10747189.058 -15048753.932 10 0 59424 33300.00000 0 18777137.106 11954451.021 -12466686.488 10 0 59424 34200.00000 0 19833462.466 12832233.410 -9642585.628 10 0 59424 35100.00000 0 20684019.454 13390494.839 -6631314.666 10 0 59424 36000.00000 0 21275466.048 13651388.235 -3491347.602 10 0 59424 36900.00000 0 21562018.110 13648081.242 -283633.588 10 0 59424 37800.00000 0 21507478.530 13423124.050 2929585.264 10 0 59424 38700.00000 0 21086881.206 13026434.562 6085979.775 10 0 59424 39600.00000 0 20287680.732 12512986.694 9124339.741 10 0 59424 40500.00000 0 19110437.755 11940299.868 11985756.853 10 0 59424 41400.00000 0 17568970.956 11365835.872 14614761.810 10 0 59424 42300.00000 0 15689968.976 10844412.864 16960393.815 10 0 59424 43200.00000 0 13512077.913 10425745.356 18977182.344 10 0 59424 44100.00000 0 11084501.753 10152213.537 20626022.753 10 0 59424 45000.00000 0 8465173.191 10056955.527 21874929.443 10 0 59424 45900.00000 0 5718569.876 10162362.622 22699652.667 10 0 59424 46800.00000 0 2913265.583 10479040.756 23084147.625 10 0 59424 47700.00000 0 119316.768 11005282.033 23020887.081 10 0 59424 48600.00000 0 -2594408.373 11727069.057 22511011.575 10 0 59424 49500.00000 0 -5162848.868 12618612.687 21564314.085 10 0 59424 50400.00000 0 -7527210.272 13643401.701 20199058.943 10 0 59424 51300.00000 0 -9637163.219 14755721.466 18441637.677 10 0 59424 52200.00000 0 -11452690.572 15902579.062 16326067.471 10 0 59424 53100.00000 0 -12945506.720 17025955.025 13893340.889 10 0 59424 54000.00000 0 -14099990.229 18065287.824 11190638.444 10 0 59424 54900.00000 0 -14913591.106 18960086.987 8270418.338 10 0 59424 55800.00000 0 -15396695.744 19652564.827 5189400.517 10 0 59424 56700.00000 0 -15571955.493 20090175.403 2007464.442 10 0 59424 57600.00000 0 -15473107.398 20227952.836 -1213517.944 10 0 59424 58500.00000 0 -15143337.270 20030549.109 -4410890.837 10 0 59424 59400.00000 0 -14633254.892 19473884.162 -7522440.603 10 0 59424 60300.00000 0 -13998567.692 18546337.105 -10487614.464 10 0 59424 61200.00000 0 -13297552.158 17249426.910 -13248706.994 10 0 59424 62100.00000 0 -12588431.052 15597952.788 -15751990.466 10 0 59424 63000.00000 0 -11926768.284 13619587.197 -17948766.267 10 0 59424 63900.00000 0 -11362992.518 11353937.918 -19796316.287 10 0 59424 64800.00000 0 -10940154.818 8851117.929 -21258735.534 10 0 59424 65700.00000 0 -10692015.505 6169882.557 -22307629.767 10 0 59424 66600.00000 0 -10641541.161 3375411.623 -22922664.794 10 0 59424 67500.00000 0 -10799875.128 536828.895 -23091957.229 10 0 59424 68400.00000 0 -11165824.667 -2275438.009 -22812299.659 10 0 59424 69300.00000 0 -11725886.007 -4992347.630 -22089216.409 10 0 59424 70200.00000 0 -12454805.776 -7548873.210 -20936849.428 10 0 59424 71100.00000 0 -13316654.764 -9886461.203 -19377676.915 10 0 59424 72000.00000 0 -14266368.389 -11955218.333 -17442070.566 10 0 59424 72900.00000 0 -15251688.680 -13715737.391 -15167700.278 10 0 59424 73800.00000 0 -16215425.798 -15140487.089 -12598797.987 10 0 59424 74700.00000 0 -17097943.647 -16214709.451 -9785295.108 10 0 59424 75600.00000 0 -17839764.789 -16936788.948 -6781850.385 10 0 59424 76500.00000 0 -18384184.863 -17318079.579 -3646787.078 10 0 59424 77400.00000 0 -18679786.323 -17382198.757 -440960.295 10 0 59424 78300.00000 0 -18682745.552 -17163819.157 2773423.457 10 0 59424 79200.00000 0 -18358836.155 -16707010.611 5934011.525 10 0 59424 80100.00000 0 -17685043.982 -16063202.824 8979511.672 10 0 59424 81000.00000 0 -16650725.796 -15288855.468 11850876.648 10 0 59424 81900.00000 0 -15258262.574 -14442934.131 14492444.003 10 0 59424 82800.00000 0 -13523179.588 -13584298.604 16853009.357 10 0 59424 83700.00000 0 -11473727.597 -12769113.239 18886812.854 10 0 59424 84600.00000 0 -9149941.747 -12048388.055 20554420.352 10 0 59424 85500.00000 0 -6602216.475 -11465753.511 21823482.902 10 0 59425 0.00000 0 -3889454.554 -11055561.971 22669360.520 10 0 59425 900.00000 0 -1076865.610 -10841395.520 23075598.797 10 0 59425 1800.00000 0 1766495.255 -10835041.618 23034249.316 10 0 59425 2700.00000 0 4570348.667 -11035981.374 22546027.961 10 0 59425 3600.00000 0 7265864.445 -11431410.312 21620307.767 10 0 59425 4500.00000 0 9788277.489 -11996792.701 20274945.905 10 0 59425 5400.00000 0 12079338.689 -12696926.355 18535947.409 10 0 59425 6300.00000 0 14089499.821 -13487474.225 16436971.134 10 0 59425 7200.00000 0 15779741.951 -14316899.225 14018686.474 10 0 59425 8100.00000 0 17122971.508 -15128721.588 11327992.268 10 0 59425 9000.00000 0 18104925.889 -15864004.134 8417112.112 10 0 59425 9900.00000 0 18724550.665 -16463960.746 5342583.095 10 0 59425 10800.00000 0 18993832.693 -16872577.679 2164157.256 10 0 59425 11700.00000 0 18937096.235 -17039136.327 -1056362.830 10 0 59425 12600.00000 0 18589791.971 -16920529.800 -4256331.206 10 0 59425 13500.00000 0 17996830.463 -16483274.150 -7373484.274 10 0 59425 14400.00000 0 17210530.987 -15705127.810 -10347160.396 10 0 59425 15300.00000 0 16288273.220 -14576249.400 -13119488.540 10 0 59425 16200.00000 0 15289951.777 -13099843.533 -15636521.887 10 0 59425 17100.00000 0 14275342.141 -11292266.136 -17849293.584 10 0 59425 18000.00000 0 13301490.116 -9182583.983 -19714773.478 10 0 59425 18900.00000 0 12420235.565 -6811605.917 -21196706.905 10 0 59425 19800.00000 0 11675975.346 -4230425.729 -22266319.247 10 0 59425 20700.00000 0 11103759.908 -1498537.294 -22902872.713 10 0 59425 21600.00000 0 10727803.577 1318399.760 -23094065.022 10 0 59425 22500.00000 0 10560470.823 4151050.981 -22836262.759 10 0 59425 23400.00000 0 10601780.601 6929051.179 -22134565.454 10 0 59425 24300.00000 0 10839448.826 9583692.090 -21002699.708 10 0 59425 25200.00000 0 11249466.403 12050542.433 -19462745.883 10 0 59425 26100.00000 0 11797187.680 14271892.035 -17544703.016 10 0 59425 27000.00000 0 12438882.766 16198919.270 -15285900.709 10 0 59425 27900.00000 0 13123687.696 17793492.677 -12730269.499 10 0 59425 28800.00000 0 13795869.781 19029532.838 -9927484.084 10 0 59425 29700.00000 0 14397312.224 19893879.083 -6931996.081 10 0 59425 30600.00000 0 14870112.974 20386626.284 -3801975.167 10 0 59425 31500.00000 0 15159187.972 20520919.054 -598179.352 10 0 59425 32400.00000 0 15214768.853 20322213.449 2617223.626 10 0 59425 33300.00000 0 14994689.622 19827038.443 5781860.839 10 0 59425 34200.00000 0 14466365.794 19081310.277 8834361.154 10 0 59425 35100.00000 0 13608382.413 18138271.378 11715541.353 10 0 59425 36000.00000 0 12411623.811 17056141.026 14369548.623 10 0 59425 36900.00000 0 10879897.164 15895576.771 16744937.526 10 0 59425 37800.00000 0 9030023.036 14717053.218 18795661.137 10 0 59425 38700.00000 0 6891388.162 13578267.973 20481957.777 10 0 59425 39600.00000 0 4504978.114 12531683.153 21771116.805 10 0 59425 40500.00000 0 1921928.850 11622305.003 22638109.338 10 0 59425 41400.00000 0 -798344.062 10885794.119 23066072.261 10 0 59425 42300.00000 0 -3590362.256 10346984.983 23046636.506 10 0 59425 43200.00000 0 -6385056.976 10018876.487 22580093.392 10 0 59425 44100.00000 0 -9112396.013 9902135.657 21675395.576 10 0 59425 45000.00000 0 -11704057.439 9985135.491 20349992.138 10 0 59425 45900.00000 0 -14096040.322 10244525.668 18629500.181 10 0 59425 46800.00000 0 -16231104.827 10646312.665 16547218.339 10 0 59425 47700.00000 0 -18060940.699 11147404.467 14143490.552 10 0 59425 48600.00000 0 -19547974.103 11697555.367 11464931.412 10 0 59425 49500.00000 0 -20666737.462 12241629.296 8563527.142 10 0 59425 50400.00000 0 -21404744.847 12722086.303 5495629.109 10 0 59425 51300.00000 0 -21762836.133 13081586.978 2320859.049 10 0 59425 52200.00000 0 -21754975.277 13265604.096 -899052.671 10 0 59425 53100.00000 0 -21407511.273 13224930.174 -4101472.704 10 0 59425 54000.00000 0 -20757933.072 12917973.627 -7224090.171 10 0 59425 54900.00000 0 -19853171.350 12312744.984 -10206137.167 10 0 59425 55800.00000 0 -18747519.308 11388447.668 -12989579.487 10 0 59425 56700.00000 0 -17500261.000 10136604.582 -15520253.464 10 0 59425 57600.00000 0 -16173108.117 8561671.639 -17748926.033 10 0 59425 58500.00000 0 -14827554.088 6681111.071 -19632256.732 10 0 59425 59400.00000 0 -13522257.691 4524920.447 -21133642.631 10 0 59425 60300.00000 0 -12310566.793 2134636.235 -22223929.783 10 0 59425 61200.00000 0 -11238286.586 -438147.002 -22881977.484 10 0 59425 62100.00000 0 -10341786.030 -3133680.356 -23095064.873 10 0 59425 63000.00000 0 -9646521.592 -5886308.332 -22859132.481 10 0 59425 63900.00000 0 -9166039.589 -8626967.144 -22178854.634 10 0 59425 64800.00000 0 -8901498.056 -11285830.023 -21067541.838 10 0 59425 65700.00000 0 -8841727.113 -13794989.883 -19546875.532 10 0 59425 66600.00000 0 -8963824.149 -16091068.223 -17646480.738 10 0 59425 67500.00000 0 -9234257.648 -18117642.404 -15403345.155 10 0 59425 68400.00000 0 -9610432.142 -19827391.052 -12861096.137 10 0 59425 69300.00000 0 -10042647.483 -21183869.092 -10069149.749 10 0 59425 70200.00000 0 -10476369.088 -22162839.440 -7081748.491 10 0 59425 71100.00000 0 -10854712.796 -22753106.940 -3956906.442 10 0 59425 72000.00000 0 -11121039.044 -22956820.841 -755282.464 10 0 59425 72900.00000 0 -11221546.540 -22789234.417 2460996.555 10 0 59425 73800.00000 0 -11107755.684 -22277932.990 5629539.538 10 0 59425 74700.00000 0 -10738776.778 -21461563.722 8688898.638 10 0 59425 75600.00000 0 -10083267.122 -20388121.399 11579756.914 10 0 59425 76500.00000 0 -9120994.273 -19112862.695 14246073.463 10 0 59425 77400.00000 0 -7843939.255 -17695936.783 16636164.051 10 0 59425 78300.00000 0 -6256892.787 -16199831.729 18703696.875 10 0 59425 79200.00000 0 -4377518.638 -14686743.434 20408584.780 10 0 59425 80100.00000 0 -2235880.428 -13215976.920 21717757.284 10 0 59425 81000.00000 0 126549.690 -11841488.104 22605798.194 10 0 59425 81900.00000 0 2658360.704 -10609668.158 23055437.024 10 0 59425 82800.00000 0 5300091.136 -9557462.480 23057885.064 10 0 59425 83700.00000 0 7986459.380 -8710902.258 22613009.745 10 0 59425 84600.00000 0 10648844.999 -8084109.585 21729343.734 10 0 59425 85500.00000 0 13217919.315 -7678817.523 20423928.085 99